sat.trackr.live / text

‹ back to catalog

STARLINK-35855

NORAD 66891 · 2025-283P

PAYLOAD ACTIVE UNKNOWN

§ Identity

Operator
Country
US
Launch date
2025-12-04
Launch site
AFWTR
Launch vehicle
Mass (kg)
RCS (m²)

Purposes: comms

External: N2YO · Heavens-Above · Gunter

§ Orbital elements

Epoch: 2026-09-20T12:51:02.567232Z

Period
93.85 min
Inclination
53.1591°
Eccentricity
0.0000659
Mean motion
15.34411967 rev/d
Perigee alt
462.2 km
Apogee alt
463.1 km
Semi-major
6,840.8 km
B*
8.3418e-4
RAAN
195.7454°
Arg perigee
95.7271°
Mean anomaly
264.3807°
Rev number
4,572

§ Raw data

STARLINK-358551 66891U 25283P   26263.53544638  .00027924  00000+0  83418-3 0  99972 66891  53.1591 195.7454 0000659  95.7271 264.3807 15.34411967 45721

JSON: /api/v1/satellites/66891 · /tle

For live sub-satellite position, see the globe view (requires WebGL).

§ Visibility from observer

Set your observer location to see the next 7 days of passes ≥ 10°. The values pass through the URL so the page stays shareable.

No JS? Fill the form by hand. The geolocation button needs JavaScript.